IRIDIUM 80 [P] (25469 NORAD) Tracking and Keplerian Element Data

This shows tracking and keplerian element data for the satellite.

Feedback or suggestion? Click here.




ElementValue
Catalog25469
NameIRIDIUM 80 [P]
Epoch Orbit3956
Epoch Day198.79658639
Epoch Year2018
RAAN216.4571
Inclination86.3875
Eccentricity0.0373017
Argument of Perigee349.1107
Mean Anonmoly10.222
Mean Motion15.38227453
Decay Rate0.00720101
L11 25469U 98051C 18198.79658639 .00720101 -10781-5 12213-2 0 9994
L22 25469 86.3875 216.4571 0373017 349.1107 10.2220 15.38227453 39567

Live tracking and technical data element details for IRIDIUM 80 [P] (NORAD 25469). IRIDIUM 80 [P] can be tracked NOW for your location showing map with azimuth and elevation plus other details from your city location.

Track the satellite on the map from your city or location and see movement details for azimuth, elevation, latitude, longitude, range, height, and movement on the map or in text.







IsCatalogInMostPopularTable: catalog: 25469, numindb: 32
Update: records affected: 1



GetName: 25469 IRIDIUM 80 [P]

Hit Count: updated at: Fri, 20 Jul 2018 07:05:07 GMT